Regional Weather Roundup
Issued by NWS Wakefield, VA

Home | Current Version | Previous Version | Text Only | Print | Product List | Glossary On
Versions: 1 2 3 4 5 6 7 8 9 10 11 12 13 14 15 16 17 18 19 20 21 22 23 24 25 26 27 28 29 30 31 32 33 34 35 36 37 38 39 40 41 42 43 44 45 46 47 48 49 50
000
ASUS41 KAKQ 052010
RWRAKQ

REGIONAL WEATHER ROUNDUP
NATIONAL WEATHER SERVICE WAKEFIELD VA
300 PM EST THU MAR 05 2015

Note: "fair" indicates few or no clouds below 12,000 feet with no
significant weather and/or obstructions to visibility. * = Denotes
station may not report precipitation (e.g., rain,snow,etc.),
thunder or fog.

VAZ042-051-052>054-056-052100-
NORTHERN VIRGINIA

CITY           SKY/WX    TMP DP  RH WIND       PRES   REMARKS
WASH NATIONAL  HVY SNOW  31  26  82 NW13      30.20S VSB 1/4 WCI  21
DULLES         SNOW      25  22  88 N13       30.18F VSB 1/4 WCI  14
FORT BELVOIR   SNOW      28  27  93 NW9       30.19S VSB 1/2
QUANTICO       HVY SNOW  28  25  88 N12G21    30.21S VSB 1/4 WCI  18
FREDERICKSBRG* HVY SNOW  29  29 100 N5        30.17F VSB<1/4
STAFFORD*      HVY SNOW  27  32 100 CALM      30.22F VSB 1/4
WARRENTON      SNOW      28  28 100 N7        30.17F VSB 1/2
CULPEPER*      SNOW      27  27 100 N10       30.18F VSB 1/2 WCI  17
MANASSAS*      SNOW      28  27  93 N13       30.19F VSB 1/2 WCI  18
LEESBURG*      SNOW      27  27 100 N7        30.20S VSB 1/2
WINCHESTER     LGT SNOW  27  21  80 N5        30.18F VSB 3/4
FRONT ROYAL*   CLOUDY    23  21  93 N7        30.16F VSB 1/2
LURAY*         SNOW      28  28 100 NE8       30.15F VSB 1/2
$$

VAZ048-049-060>072-079>083-052100-
CENTRAL AND SOUTH CENTRAL VIRGINIA

CITY           SKY/WX    TMP DP  RH WIND       PRES   REMARKS
RICHMOND       LGTSLEET  34  28  80 N10       30.14F VSB 1
CHESTERFIELD*  MOCLDY    32  21  64 N7        30.14S
PETERSBURG*    RAIN      34  34  98 N9        30.13F
HANOVER        LGT SNOW  30  29  96 N9G18     30.17S FOG
TAPPAHANNOCK*  LGT SNOW  32  31  94 N8        30.15F
QUINTON*       CLOUDY    32  31  96 N8        30.13F
CHARLOTTSVILLE SNOW      27  25  92 NE10      30.15S VSB 1/4 WCI  17
GORDONSVILLE*  FOG       27  26  95 NE8       30.16S VSB 1/2
ORANGE*        SNOW      28  28 100 N6        30.17F VSB 1/2
LOUISA*        SNOW      28  27  93 NE8G16    30.13F VSB 1/2
BUMPASS*       CLOUDY    28  27  96 N8        30.16F VSB 1/4
FARMVILLE*     LGT SNOW  33  33 100 NE12G18   29.81F WCI  24
CREWE*         CLOUDY    32  30  93 N5        30.12S
FORT PICKETT*  CLOUDY    32  32  99 N10       30.10S WCI  24
CHASE CITY*    CLOUDY    36  36 100 N10G17    30.10S
CLARKSVILLE*   CLOUDY    34  34 100 NE6       30.07F VSB 1
SOUTH HILL*    CLOUDY    33  32  96 N14G25    30.15R WCI  23
LAWRENCEVILLE* CLOUDY    33  33  98 N6        30.10S
EMPORIA*       LGT SNOW  34  32  93 N10G17    30.12F
$$

VAZ088>098-052100-
SOUTHEAST VIRGINIA

CITY           SKY/WX    TMP DP  RH WIND       PRES   REMARKS
NORFOLK        LGT SNOW  34  31  88 N22G32    30.10R FOG     WCI  22
VIRGINIA BEACH LGT RAIN  35  32  88 N17G30    30.10R FOG     WCI  25
NORFOLK NAVAL  LGT RAIN  37  32  82 N22G30    30.12S FOG
WEST POINT*    CLOUDY    35  33  90 N7        30.15F
SALUDA*        CLOUDY    32  31  96 N10       30.13F WCI  24
NEWPORT NEWS   LGT RAIN  37  32  82 N12G21    30.12S
LANGLEY AFB    MIX PCPN  35  33  93 N13G20    30.11R FOG
FORT EUSTIS    LGT RAIN  34  34 100 NE12G17   30.10S
WILLIAMSBURG*  CLOUDY    36  36 100 N6        30.13F VSB 1
HR EXEC AP*    CLOUDY    36  30  80 N10G21    30.13R
FRANKLIN*      LGT RAIN  35  33  94 N12G21    30.11F
WAKEFIELD      LGT RAIN  35  32  88 N9G20     30.11F FOG
$$

VAZ020-022-025-037-045-052100-
WEST CENTRAL AND SOUTHWEST VIRGINIA

CITY           SKY/WX    TMP DP  RH WIND       PRES   REMARKS
STAUNTON*      LGT SNOW  26  24  90 NE10      30.12F VSB 1   WCI  16
WAYNESBORO*    CLOUDY    25  23  94 MISG      30.09S VSB 1/2
HOT SPRINGS VA CLOUDY    21  21 100 NW6       29.94R
LYNCHBURG      MIX PCPN  31  31 100 E9        30.09S FOG
DANVILLE       LGT RAIN  37  33  85 E12G23    30.05F
SOUTH BOSTON*  CLOUDY    35  33  92 NE12      30.09S
MARTINSVILLE   RAIN      38  38 100 E6        30.07R
ROANOKE        LGT SNOW  33  31  92 N5        30.10R FOG
BLACKSBURG     CLOUDY    28  27  93 W6        30.07R
DUBLIN*        CLOUDY    29  27  91 NW6       30.07R
MARION*        CLOUDY    30  25  83 W9        30.09R
HILLSVILLE*    CLOUDY    30  29  96 N12G17    30.01R WCI  21
RICHLANDS*     CLOUDY    22  19  89 NW12      30.09R WCI  10
WISE*          CLOUDY    21  21 100 NW8       30.14R FOG
ABINGDON*      CLOUDY    29  26  88 N7        30.10R
$$

MDZ021>025-VAZ099-100-052100-
SOUTHERN MARYLAND AND THE DELMARVA PENINSULA

CITY           SKY/WX    TMP DP  RH WIND       PRES   REMARKS
PATUXENT RIVER SNOW      30  28  92 N15       30.16S VSB 1/4 WCI  19
BAY BRIDGE APT SNOW      27  27 100 N8G18     30.20R VSB 1/4
LEONARDTOWN    CLOUDY    30  28  93 CALM      30.18R VSB 1/4
DOVER          LGT SNOW  25  25 100 N18       30.18F VSB 3/4 WCI  11
GEORGETOWN     SNOW      29  27  92 N13G24    30.15R VSB 1/2 WCI  19
EASTON         SNOW      30  30 100 NE10G20   30.21  VSB 1/4 WCI  21
CAMBRIDGE      CLOUDY    32  30  93 N10       30.15F VSB 1/2 WCI  24
SALISBURY      LGT SNOW  34  30  85 N9G20     30.16R VSB 1
OCEAN CITY     MIX PCPN  32  30  92 N14       30.14R VSB 1   WCI  22
WALLOPS ISLAND LGT RAIN  33  31  92 N10G18    30.15R FOG     WCI  25
ACCOMACK*      MIX PCPN  34  32  93 N12G17    30.12R
$$

NCZ012>017-030>032-052100-
NORTH CENTRAL AND EASTERN NORTH CAROLINA

CITY           SKY/WX    TMP DP  RH WIND       PRES   REMARKS
ROANOKE RAPIDS DRIZZLE   36  34  93 N13G22    30.11R
RALEIGH        LGT RAIN  38  34  85 NE20G29   30.05R FOG
ELIZABETH CITY HVY RAIN  37  34  87 N22G36    30.07R FOG
AHOSKIE*       LGT RAIN  35  34  94 N17       30.09S WCI  25
EDENTON*       LGT RAIN  37  36  94 N13G20    30.05R
CURRITUCK*     LGT RAIN  37  35  92 N23G37    30.06R
KILL DEVIL HLS CLOUDY    37  37 100 N13G22    29.99R FOG
MANTEO         CLOUDY    38  37  96 N21G26    29.99F
CAPE HATTERAS  CLOUDY    41  41 100 N10G21    29.96F FOG
TARBORO*       LGT RAIN  37  35  91 N15G24    30.07S
GOLDSBORO      MIX PCPN  40  40  99 N15G31    29.99R FOG
WASHINGTON     LGT RAIN  39  37  92 N14G24    30.03R
GREENVILLE     LGT RAIN  37  37 100 N21       30.05R
NEW BERN       CLOUDY    51  42  71 NE14      29.95R
WILMINGTON     MOSUNNY   75  63  66 SW22G36   29.88F
$$

VAZ048-052100-
ELSEWHERE

CITY           SKY/WX    TMP DP  RH WIND       PRES   REMARKS
HARRISBURG PA  SNOW      20  16  84 NE8       30.21R VSB 1/2
BALTIMORE      HVY SNOW  27  24  89 VRB6      30.18R VSB 1/4
ANNAPOLIS      SNOW      27  24  89 NE10      30.18S VSB 1/4 WCI  17
ANDREWS AFB    LGT SNOW  28  27  93 N8        30.16S FOG
PHILADELPHIA   HVY SNOW  22  19  89 N13       30.21F VSB 1/4 WCI  10
HENDERSON NC   LGT RAIN  35  33  92 NE12G18   30.07F
GREENSBORO     LGT RAIN  38  35  89 NE15G23   30.01F FOG
ROCKY MOUNT    LGT SNOW  37  35  92 N21G32    30.06S FOG
$$

VAZ100-052100-
MARINE

STATION/POSITION TIME  TEMP    WIND        PRES    WAVE   SWELL
                       AIR SEA DIR/SP/G            HT/PER HT/PER
                 (UTC) (F)     (DEG/KT/KT) (MB)    (FT/S) (FT/S)
BRANDYWINE LGT   2000           20/ 25/ 29   N/A
CAPE MAY NJ      2000   28 34  350/ 10/ 19 1020.8R
LEWES DE         2000   29 33   10/ 20/ 25 1020.9F
15NM E FENWICK I 2000   32 35              1019.5R   6/ 6
OCEAN-CITY-INLET 2000   32 34   10/ 16/ 21 1020.3R
WACHAPREAGUE VA  2000   35 41   10/ 10/ 16 1019.8R
THOMAS POINT MD  2000          360/ 19/ 21   N/A
COVE POINT MD    2000   28      20/ 11/ 13 1021.5R
SOLOMONS ISLAND  2000      33                N/A
BISHOPS HEAD MD  2000   32 35  360/  7/ 12 1020.3S
CAMBRIDGE MD     2000   30 32  350/ 12/ 14 1021.0R
LEWISETTA VA     2000   31 34   10/  8/ 13 1020.7F
RAPPAHANNOCK LGT 2000          340/ 25/ 28 1020.4R
STINGRAY PT      2000   33     360/ 19/ 23   N/A
YORK RVR RNG VA  2000   34      10/ 20/ 23 1019.1R
YORKTOWN VA      2000   34 35  360/ 14/ 22 1019.9S
DOMINION TERM VA 2000   35     360/ 13/ 18 1020.0R
KIPTOPEKE VA     2000      40  360/ 16/ 23   N/A
CHES BAY BRIDGE  2000   33 34  340/ 25/ 30 1019.1R
CAPE HENRY VA    2000   33     350/ 26/ 31 1017.6F
CHESAPEAKE LGHT  1900   34      30/ 26/ 30 1017.1F
WILLOUBY STN VA  2000   33     360/ 24/ 27 1019.7F
S CRANEY ISL VA  2000          360/ 24/ 28 1019.0F
CAPE HENRY BUOY  2000      36                N/A     6/ 6
1ST LANDING BUOY 2000   33     360/ 23/ 29 1018.6S
OFFSHORE WE BUOY 2000      37                N/A     7/ 6   2/11
64NM E OF VA BCH 2000   45 52   20/ 25/ 31 1013.7F   9/ 7
DUCK PIER NC     2000   36 36  360/ 23/ 24 1014.9R
44100 DUCK FRF   1900      38                N/A     7/ 6
44056 DUCK FRF   2000      36                N/A     6/ 6
OREGON INLET NC  2000   38 49  350/ 12/ 18 1015.2R
HATTERAS NC      2000      51   20/ 17/ 23 1014.9F
CAPE LOOKOUT NC  2000   61     210/ 14/ 21 1013.0F
$$



USA.gov is the U.S. government's official web portal to all federal, state and local government web resources and services.